KHALIFASAT (43676 NORAD) Tracking and Keplerian Element Data

This shows tracking and keplerian element data for the satellite.

Feedback or suggestion? Click here.




ElementValue
Catalog43676
NameKHALIFASAT
Epoch Orbit320
Epoch Day323.79369695
Epoch Year2018
RAAN74.0921
Inclination97.8321
Eccentricity0.0014775
Argument of Perigee233.6888
Mean Anonmoly126.2966
Mean Motion14.88673529
Decay Rate-8.4E-07
L11 43676U 18084F 18323.79369695 -.00000084 00000-0 -30156-5 0 9992
L22 43676 97.8321 74.0921 0014775 233.6888 126.2966 14.88673529 3203

Live tracking and technical data element details for KHALIFASAT (NORAD 43676). KHALIFASAT can be tracked NOW for your location showing map with azimuth and elevation plus other details from your city location.

Track the satellite on the map from your city or location and see movement details for azimuth, elevation, latitude, longitude, range, height, and movement on the map or in text.







IsCatalogInMostPopularTable: catalog: 43676, numindb: 9
Update: records affected: 1



GetName: 43676 KHALIFASAT

Hit Count: updated at: Tue, 20 Nov 2018 11:14:05 GMT